Header for Extended Forecast Station List Page

Search by: ID | Name | Date | Parm | Value | Avg | % Avg
Sort by: ID | Name | Date | Parm | Value | Avg | % Avg

Enter search or view all records.

Click on id for station plot
#IDNameDateParmValueAvg% Avg
0HWRI1BIG LOST-AT HOWELL RANCH NEAR CHILLY02-18-2020DISCHARGE (KAF)809683
1MACI1BIG LOST-MACKAY RESERVOIR NEAR MACKAY02-18-2020INFLOW (KAF)729775
2HALI1BIG WOOD-AT HAILEY02-18-2020DISCHARGE (KAF)12115877
3MAGI1BIG WOOD-MAGIC DAM02-18-2020INFLOW (KAF)11920658
4BITM8BITTERROOT-NEAR MISSOULA02-18-2020DISCHARGE (KAF)956918104
5BONM8BLACKFOOT-NEAR BONNER02-18-2020DISCHARGE (KAF)733615119
6BIGI1BOISE-AT GLENWOOD BRIDGE02-18-2020DISCHARGE (KAF)352348101
7LUCI1BOISE-LUCKY PEAK DAM02-18-2020INFLOW (KAF)991MM
8PARI1BOISE-NEAR PARMA02-18-2020DISCHARGE (KAF)39241894
9HOTI1BRUNEAU-NEAR HOT SPRINGS02-18-2020DISCHARGE (KAF)185164113
10BULO3BULLY CREEK-BULLY CREEK DAM02-18-2020INFLOW (KAF)128146
11BUDW1BUMPING-BUMPING LAKE DAM02-18-2020INFLOW (KAF)11992129
12CHDW1CHELAN-LAKE CHELAN DAM02-18-2020INFLOW (KAF)814685119
13ABOM8CLARK FORK-ABOVE MISSOULA02-18-2020DISCHARGE (KAF)12601123112
14DLGM8CLARK FORK-AT DEER LODGE02-18-2020DISCHARGE (KAF)8181100
15SRGM8CLARK FORK-AT ST REGIS02-18-2020DISCHARGE (KAF)2744281098
16BELM8CLARK FORK-BELOW MISSOULA02-18-2020DISCHARGE (KAF)22172060108
17CABI1CLARK FORK-CABINET GORGE DAM02-18-2020INFLOW (KAF)7268766195
18NOXM8CLARK FORK-NOXON RAPIDS DAM02-18-2020INFLOW (KAF)6581730590
19DRMM8CLARK FORK-NR DRUMMOND02-18-2020DISCHARGE (KAF)279MM
20CLUW1CLE ELUM-CLE ELUM LAKE02-18-2020INFLOW (KAF)355309115
21ORFI1CLEARWATER-AT OROFINO02-18-2020DISCHARGE (KAF)46904028116
22SPDI1CLEARWATER-AT SPALDING02-18-2020DISCHARGE (KAF)68056310108
23COEI1COEUR D ALENE-COEUR D ALENE LAKE02-18-2020INFLOW (KAF)29732805106
24CIBW1COLUMBIA-AT INTL BOUNDARY02-18-2020DISCHARGE (KAF)23924MM
25BONO3COLUMBIA-BONNEVILLE DAM02-18-2020INFLOW (KAF)5797055806104
26CHJW1COLUMBIA-CHIEF JOSEPH DAM02-18-2020INFLOW (KAF)3172427500115
27GCDW1COLUMBIA-GRAND COULEE DAM02-18-2020INFLOW (KAF)291812985698
28JDAO3COLUMBIA-JOHN DAY DAM02-18-2020INFLOW (KAF)5651155399102
29MCDW1COLUMBIA-MCNARY DAM02-18-2020INFLOW (KAF)5397352823102
30PRWW1COLUMBIA-PRIEST RAPIDS DAM02-18-2020INFLOW (KAF)3530632011110
31RRHW1COLUMBIA-ROCKY REACH DAM02-18-2020INFLOW (KAF)3420029776115
32TDAO3COLUMBIA-THE DALLES DAM02-18-2020INFLOW (KAF)5689253399107
33WANW1COLUMBIA-WANAPUM DAM02-18-2020INFLOW (KAF)3531331503112
34WELW1COLUMBIA-WELLS DAM02-18-2020INFLOW (KAF)3358529314115
35DEDI1DEADWOOD-NEAR LOWMAN02-18-2020INFLOW (KAF)9910396
36MODO3DESCHUTES-AT MOODY NR BIGGS02-18-2020DISCHARGE (KAF)1394153891
37ARDW1ENTIAT-NEAR ARDENVOIR02-18-2020DISCHARGE (KAF)138135102
38CHEI1FALL RIVER-NEAR CHESTER02-18-2020DISCHARGE (KAF)318281113
39CFMM8FLATHEAD-AT COLUMBIA FALLS02-18-2020DISCHARGE (KAF)37703144120
40KERM8FLATHEAD-KERR DAM02-18-2020INFLOW (KAF)43463990109
41TRYO3GRANDE RONDE-TROY02-18-2020DISCHARGE (KAF)17221221141
42REXI1HENRYS FORK-AT REXBURG02-18-2020DISCHARGE (KAF)789693114
43ANTI1HENRYS FORK-AT ST. ANTHONY02-18-2020DISCHARGE (KAF)649594109
44IPDI1HENRYS FORK-ISLAND PARK DAM02-18-2020INFLOW (KAF)194176110
45HODO3HOOD-NEAR TUCKER BRIDGE02-18-2020DISCHARGE (KAF)27027499
46SERO3JOHN DAY-AT SERVICE CK02-18-2020DISCHARGE (KAF)953901106
47KADW1KACHESS-KACHESS DAM02-18-2020INFLOW (KAF)11499115
48LAUW1KETTLE-AT LAURIER02-18-2020DISCHARGE (KAF)19051417134
49PITW1KLICKITAT-NEAR PITT02-18-2020DISCHARGE (KAF)48853092
50BFEI1KOOTENAI-AT BONNERS FERRY02-18-2020STAGE (FT)MMM
51LEOI1KOOTENAI-AT LEONIA02-18-2020DISCHARGE (KAF)2924367480
52LYDM8KOOTENAI-LIBBY DAM02-18-2020INFLOW (KAF)36233559102
53LWRI1LITTLE WOOD-LITTLE WOOD DAM02-18-2020INFLOW (KAF)386756
54BERO3MALHEUR-AGENCY VALLEY DAM02-18-2020INFLOW (KAF)445285
55WRMO3MALHEUR-WARM SPRINGS DAM02-18-2020INFLOW (KAF)7971110
56MYKO3MCKAY CREEK-NEAR PILOT ROCK02-18-2020DISCHARGE (KAF)5936164
57PATW1METHOW-NEAR PATEROS02-18-2020DISCHARGE (KAF)676621109
58WGCM8MF FLATHEAD-NEAR WEST GLACIER02-18-2020DISCHARGE (KAF)12571103114
59CLFW1NACHES-NEAR CLIFFDEL02-18-2020DISCHARGE (KAF)399314127
60NACW1NACHES-NEAR NACHES02-18-2020DISCHARGE (KAF)600400150
61DWRI1NF CLEARWATER-DWORSHAK DAM02-18-2020INFLOW (KAF)27912527110
62FCFM8NF FLATHEAD-NEAR COLUMBIA FALLS02-18-2020DISCHARGE (KAF)12631135111
63MONO3NF JOHN DAY-AT MONUMENT02-18-2020DISCHARGE (KAF)697625112
64CSDI1NF PAYETTE-CASCADE DAM02-18-2020INFLOW (KAF)42144096
65TONW1OKANOGAN-NEAR TONASKET02-18-2020DISCHARGE (KAF)12081121108
66OWYO3OWYHEE-OWYHEE DAM02-18-2020INFLOW (KAF)447361124
67EMMI1PAYETTE-NEAR EMMETT02-18-2020DISCHARGE (KAF)842109577
68ALFW1PEND OREILLE-ALBENI FALLS DAM02-18-2020INFLOW (KAF)8784925495
69HOPI1PEND OREILLE-PEND OREILLE LAKE NR HOPE02-18-2020LAKE ELEVATION (FT)MMM
70PIHI1PORTNEUF-AT POCATELLO02-18-2020DISCHARGE (KAF)8510185
71PRTI1PRIEST-NEAR PRIEST RIVER02-18-2020DISCHARGE (KAF)809697116
72RCCM8ROCK CREEK-NEAR CLINTON02-18-2020DISCHARGE (KAF)203184110
73WHBI1SALMON-AT WHITEBIRD02-18-2020DISCHARGE (KAF)3710428487
74ARAI1SF BOISE-ANDERSON RANCH DAM02-18-2020INFLOW (KAF)36943285
75HHWM8SF FLATHEAD-HUNGRY HORSE DAM02-18-2020INFLOW (KAF)16581478112
76PLDI1SF SNAKE-PALISADES DAM02-18-2020INFLOW (KAF)22161907116
77SIFI1SNAKE-AB EAGLE ROCK NR IDAHO FALLS02-18-2020DISCHARGE (KAF)27881885148
78AFRI1SNAKE-AMERICAN FALLS RESERVOIR02-18-2020INFLOW (KAF)29342277129
79SNAI1SNAKE-AT BLACKFOOT02-18-2020DISCHARGE (KAF)23791624146
80MILI1SNAKE-AT MILNER02-18-2020DISCHARGE (KAF)54664784
81WEII1SNAKE-AT WEISER02-18-2020DISCHARGE (KAF)4337533281
82SWAI1SNAKE-BELOW SWAN FALLS02-18-2020DISCHARGE (KAF)2288267985
83BRNI1SNAKE-BROWNLEE DAM02-18-2020INFLOW (KAF)4848576684
84IHDW1SNAKE-ICE HARBOR DAM02-18-2020INFLOW (KAF)174431867793
85JLKW4SNAKE-JACKSON LAKE AT DAM02-18-2020INFLOW (KAF)545514106
86LGSW1SNAKE-LITTLE GOOSE DAM02-18-2020INFLOW (KAF)172671860293
87LGDW1SNAKE-LOWER GRANITE DAM02-18-2020INFLOW (KAF)172671856493
88LMNW1SNAKE-LOWER MONUMENTAL DAM02-18-2020INFLOW (KAF)174431881293
89ALPW4SNAKE-NEAR ALPINE02-18-2020DISCHARGE (KAF)14891232121
90ANAW1SNAKE-NEAR ANATONE02-18-2020DISCHARGE (KAF)104621225885
91BFTI1SNAKE-NEAR BLACKFOOT02-18-2020DISCHARGE (KAF)23461606146
92HEII1SNAKE-NEAR HEISE02-18-2020DISCHARGE (KAF)26981861145
93JKSW4SNAKE-NEAR JACKSON02-18-2020DISCHARGE (KAF)1170932126
94SHYI1SNAKE-NEAR SHELLEY02-18-2020DISCHARGE (KAF)26691875142
95LLKW1SPOKANE-AT LONGLAKE02-18-2020INFLOW (KAF)3171338194
96SPOW1SPOKANE-AT SPOKANE02-18-2020DISCHARGE (KAF)2828MM
97SJMI1ST JOE-AT ST MARIES02-18-2020STAGE (FT)MMM
98SATI1ST MARIES-NEAR SANTA02-18-2020DISCHARGE (KAF)163151108
99STRM8ST. REGIS-NEAR ST. REGIS02-18-2020DISCHARGE (KAF)21623393
100TNAW1TEANAWAY-BELOW FORKS02-18-2020DISCHARGE (KAF)157132119
101TEAI1TETON-NEAR ST. ANTHONY02-18-2020DISCHARGE (KAF)306246124
102RILW1TIETON-RIMROCK LAKE NEAR RIMROCK02-18-2020INFLOW (KAF)174153113
103PDTO3UMATILLA-AT PENDLETON02-18-2020DISCHARGE (KAF)274188146
104GIBO3UMATILLA-NEAR GIBBON02-18-2020DISCHARGE (KAF)11783140
105UMAO3UMATILLA-NEAR UMATILLA02-18-2020DISCHARGE (KAF)291149196
106TCHW1WALLA WALLA-NEAR TOUCHET02-18-2020DISCHARGE (KAF)271193141
107WSRI1WEISER-NEAR WEISER02-18-2020DISCHARGE (KAF)451436103
108PESW1WENATCHEE-AT PESHASTIN02-18-2020DISCHARGE (KAF)11331054107
109UNDW1WHITE SALMON-NEAR UNDERWOOD02-18-2020DISCHARGE (KAF)33835795
110RIDI1WILLOW CREEK-RIRIE DAM02-18-2020INFLOW (KAF)6443149
111EASW1YAKIMA-AT EASTON02-18-2020DISCHARGE (KAF)127100127
112KIOW1YAKIMA-AT KIONA02-18-2020DISCHARGE (KAF)10831023106
113UMTW1YAKIMA-AT UMTANUM02-18-2020DISCHARGE (KAF)697624112
114KEDW1YAKIMA-KEECHELUS LAKE02-18-2020INFLOW (KAF)124104119
115PARW1YAKIMA-NEAR PARKER02-18-2020DISCHARGE (KAF)829645129